[ hide orbit diagram ]
For accurate long-term ephemerides, please instead use our Horizons system.This orbit viewer was implemented using two-body methods, and hence should not be used for determining accurate long-term trajectories (over several years or decades) or planetary encounter circumstances.
Orbital Elements at Epoch 2459000.5 (2020-May-31.0) TDB
Reference: JPL 30 (heliocentric ecliptic J2000)
Element | Value | Uncertainty (1-sigma) | Units |
e | .1739337112179629 | 4.4399e-08 | |
a | 2.783989729689355 | 1.1911e-08 | au |
q | 2.299760064011792 | 1.2426e-07 | au |
i | 8.866945884231194 | 4.9118e-06 | deg |
node | 343.1762532071967 | 2.1423e-05 | deg |
peri | 25.5848327131851 | 2.3806e-05 | deg |
M | 200.0303655128803 | 1.1405e-05 | deg |
tp | 2459754.436765029930 (2022-Jun-23.93676503) | 5.6207e-05 | TDB |
period | 1696.679724755065 4.65 | 1.0888e-05 2.981e-08 | d yr |
n | .212179113563681 | 1.3616e-09 | deg/d |
Q | 3.268219395366918 | 1.3982e-08 | au |
|
| | Orbit Determination Parameters
Additional Information
|
[ show covariance matrix ]
Physical Parameter Table
Parameter |
Symbol |
Value |
Units |
Sigma |
Reference |
Notes |
absolute magnitude |
H |
13.1 |
|
n/a |
MPO384866 |
|
diameter |
diameter |
6.449 |
km |
0.143 |
urn:nasa:pds:neowise_diameters_albedos::2.0[mainbelt] (http://adsabs.harvard.edu/abs/2011ApJ...741...68M) |
|
geometric albedo |
albedo |
0.294 |
|
0.046 |
urn:nasa:pds:neowise_diameters_albedos::2.0[mainbelt] (http://adsabs.harvard.edu/abs/2011ApJ...741...68M) |
|
|
12436 (1996 BY1) Discovered 1996-Jan-24 by Kobayashi, T. at Oizumi |
Reference: 19991123/Numbers.arc | Last Updated: 2004-04-19 |
|
[ show close-approach data ]
Alternate Designations
1996 BY1 = 1952 UZ = 1977 AA2 |
|
|